Flag for Turkey Weather past 2 weeks in Samsun, Turkey

Now
61 °F

Broken clouds.


Feels Like: 61 °F
Forecast: 54 / 69 °F
Wind: 3 mph from Southeast

Location: Samsun / Carsamba

Current Time: May 30, 2015 at 8:18:28 AM

Latest Report: May 30, 2015 at 7:50 AM


Visibility: N/A

Pressure: 29.92 "Hg

Humidity: 88%

Dew point: 57 °F

Location of SamsunLocation

Historic Weather in Samsun — Graph

°F

Samsun temperature yesterday

Maximum temperature yesterday: 64 °F (at 2:50 PM)
Minimum temperature yesterday: 59 °F (at 11:50 PM)
Average temperature yesterday: 62 °F

Past Weeks' High & Low Weather Summary

 TemperatureHumidityPressure
High79 °F (May 15, 11:50 AM)100% (May 18, 1:50 AM)30.12 "Hg (May 18, 1:50 AM)
Low52 °F (May 15, 6:50 AM)23% (May 15, 3:50 PM)29.59 "Hg (May 27, 8:00 PM)
Average65 °F81%29.88 "Hg
* Reported May 15 6:50 AM — May 30 6:50 AM, Samsun, Weather by CustomWeather, © 2015

Note: Actual official high and low records may vary slightly from our data, if they occured in-between our weather recording intervals... More about our weather records

Advertising

Samsun weather history for previous 24 hours

 ConditionsComfort  
Time TempWeatherWind HumidityBarometerVisibility
6:50 AM
Sat, May 30
59 °FBroken clouds.5 mph94%29.89 "HgN/A
5:50 AM57 °FPartly cloudy.2 mph100%29.89 "HgN/A
4:50 AM57 °FPartly cloudy.3 mph94%29.89 "HgN/A
3:50 AM59 °FPartly cloudy.2 mph88%29.86 "HgN/A
2:50 AM59 °FPartly cloudy.3 mph88%29.86 "HgN/A
1:50 AM59 °FPartly cloudy.5 mph88%29.89 "HgN/A
12:50 AM59 °FPartly cloudy.No wind82%29.86 "HgN/A
11:50 PM
Fri, May 29
59 °FPartly cloudy.5 mph82%29.86 "HgN/A
10:50 PM61 °FPartly cloudy.3 mph83%29.89 "HgN/A
9:50 PM61 °FPartly cloudy.7 mph83%29.86 "HgN/A
8:50 PM61 °FBroken clouds.6 mph77%29.86 "HgN/A
7:50 PM61 °FBroken clouds.6 mph83%29.86 "HgN/A
6:50 PM63 °FBroken clouds.6 mph73%29.83 "HgN/A
5:50 PM64 °FBroken clouds.6 mph68%29.83 "HgN/A
4:50 PM63 °FBroken clouds.6 mph83%29.86 "HgN/A
3:50 PM63 °FBroken clouds.6 mph83%29.83 "HgN/A
2:50 PM64 °FBroken clouds.7 mph83%29.83 "HgN/A
1:50 PM63 °FBroken clouds.7 mph88%29.83 "HgN/A
12:50 PM61 °FCloudy.7 mph94%29.83 "HgN/A
11:50 AM61 °FLight rain. Cloudy.7 mph94%29.83 "Hg4 mi
10:50 AM61 °FLight rain. Cloudy.5 mph94%29.83 "Hg4 mi
9:50 AM61 °FSprinkles. Broken clouds.6 mph88%29.80 "Hg4 mi
8:50 AM61 °FSprinkles. Cloudy.3 mph94%29.80 "Hg4 mi
Weather by CustomWeather, © 2015

See weather overviewHow to use our weather pages